Weather in Guaruja

Brazil     23°59′23″S   46°15′38″W
temp.,
°C
wind,
m/s
gust,
m/s
humid.,
%
clouds,
%
prec.,
mm/h
press.,
hPa
HPBL,
m
6 march, sat
sat600:00+26nw2276100 0.6 100756
03:00+26nnw2278100 0.8 100785
06:00+25nnw1277100 0.7 100787
09:00+27sw2275100 2.6 1010229
12:00+26ssw3278100 3.4 1010211
15:00+26s3378100 5.6 1009469
18:00+25ene1181100 1.1 1008325
21:00+25nnw1182100 1.2 1011266
7 march, sun
sun700:00+24wnw118499 2.0 1011153
03:00+24nw1186100 3.6 1010127
06:00+24wnw1184100 1.2 1010173
09:00+25ssw228176 5.1 1012177
12:00+26sse337537 3.0 1012597
15:00+26se337331 3.7 1010726
18:00+26ese337793 0.3 1011528
21:00+25ese348397 1.9 1012376
8 march, mon
mon800:00+24e2382100 1.3 1013424
03:00+24wnw118598 5.3 1011131
06:00+24wsw238464 3.6 1012226
09:00+25sw448036 4.5 1013526
12:00+26s447415 0.9 1012772
15:00+26se457426 1.3 1011878
18:00+25ese457879 0.7 1011650
21:00+25e348065 0.9 1013538
9 march, tue
tue900:00+24e228338 0.1 1012433
03:00+23nne128544 0.6 1010226
06:00+23nnw118614 0.2 1011156
09:00+25wsw217911 0.6 1012380
12:00+25sse337621 0.4 1012591
15:00+26ese557430 0.8 1009840
18:00+25e678235 0.5 1010696
21:00+24e678629 0.9 1011529
10 march, wed
wed1000:00+24ene33846 0.1 1010381
03:00+23ne128315 0.1 1009247
06:00+23n11810 0.0 1009176
09:00+25e11720 0.0 1010344
12:00+26se34760 0.2 1009503
15:00+27e45776 0.6 1008601
18:00+26e45833 2.4 1007245
21:00+25ene34842 3.2 1009276